W5IM Weather Reports


Display with metric or nautical units.
time (UTC)temp
F
wind
direction
speed
MPH
gust
MPH
rain 1hr
in
rain 24hr
in
rain mn
in
humidity
%
barometer
mb
20260507123514 68 5 10.0 15.0 0.00 0.00 0.00 81 1012.4
20260507122014 68 22 9.0 13.0 0.00 0.00 0.00 81 1012.0
20260507121512 68 21 9.0 14.0 0.00 0.00 0.00 81 1012.0
20260507120014 68 22 6.0 10.0 0.00 0.00 0.00 81 1012.0
20260507115514 68 28 8.0 13.0 0.00 0.00 0.00 81 1011.8
20260507115014 68 27 10.0 16.0 0.00 0.00 0.00 81 1011.7
20260507114513 68 25 9.0 16.0 0.00 0.00 0.00 81 1011.7
20260507114013 68 29 9.0 13.0 0.00 0.00 0.00 81 1011.7
20260507113514 68 27 10.0 14.0 0.00 0.00 0.00 81 1011.7
20260507113015 68 41 7.0 14.0 0.00 0.00 0.00 81 1011.3
20260507111513 69 16 8.0 10.0 0.00 0.00 0.00 81 1011.8
20260507111014 69 21 9.0 14.0 0.00 0.00 0.00 81 1011.8
20260507110513 69 6 9.0 13.0 0.00 0.00 0.00 81 1011.7
20260507110013 69 16 10.0 14.0 0.00 0.00 0.00 81 1011.7
20260507105515 69 33 9.0 13.0 0.00 0.00 0.00 81 1011.5
20260507105014 69 42 9.0 13.0 0.00 0.00 0.00 81 1011.4
20260507104513 69 55 10.0 14.0 0.00 0.00 0.00 81 1011.4
20260507104016 69 49 8.0 12.0 0.00 0.00 0.00 81 1011.5
20260507103513 69 50 7.0 10.0 0.00 0.00 0.00 81 1011.7
20260507103013 69 29 7.0 10.0 0.00 0.00 0.00 81 1011.8
20260507102513 69 33 8.0 12.0 0.00 0.00 0.00 81 1011.9
20260507101513 69 8 7.0 10.0 0.00 0.00 0.00 81 1012.1
20260507100513 69 32 7.0 13.0 0.00 0.00 0.00 81 1011.7
20260507100013 69 31 8.0 12.0 0.00 0.00 0.00 81 1011.3
20260507095513 69 30 7.0 9.0 0.00 0.00 0.00 81 1011.3
20260507095014 69 29 6.0 12.0 0.00 0.00 0.00 81 1011.3
20260507094513 69 24 9.0 14.0 0.00 0.00 0.00 81 1011.1
20260507094019 69 19 8.0 10.0 0.00 0.00 0.00 81 1011.1
20260507093014 69 22 8.0 12.0 0.00 0.00 0.00 81 1010.9
20260507092513 69 20 8.0 12.0 0.00 0.00 0.00 81 1011.0
20260507092016 69 13 8.0 12.0 0.00 0.00 0.00 81 1011.1
20260507091514 70 17 8.0 14.0 0.00 0.00 0.00 81 1011.3
20260507091016 70 11 7.0 12.0 0.00 0.00 0.00 81 1011.3
20260507090514 70 18 8.0 12.0 0.00 0.00 0.00 81 1011.3
20260507084513 70 15 7.0 10.0 0.00 0.00 0.00 81 1011.3
20260507084014 70 17 10.0 15.0 0.00 0.00 0.00 81 1011.1
20260507083514 70 12 10.0 14.0 0.00 0.00 0.00 81 1011.1
20260507083013 70 10 9.0 14.0 0.00 0.00 0.00 81 1011.1
20260507082014 71 20 7.0 10.0 0.00 0.00 0.00 81 1010.9
20260507081015 70 21 9.0 13.0 0.00 0.00 0.00 81 1010.8
20260507080014 70 19 11.0 15.0 0.00 0.00 0.00 81 1010.8
20260507075518 70 31 10.0 14.0 0.00 0.00 0.00 81 1010.9
20260507075015 70 41 10.0 14.0 0.00 0.00 0.00 81 1010.9
20260507074515 70 33 9.0 16.0 0.00 0.00 0.00 81 1010.9
20260507074015 70 24 11.0 16.0 0.00 0.00 0.00 81 1010.9
20260507073517 70 25 10.0 15.0 0.00 0.00 0.00 81 1010.9
20260507073016 71 43 10.0 15.0 0.00 0.00 0.00 81 1010.9
20260507072515 71 29 9.0 13.0 0.00 0.00 0.00 81 1010.9
20260507072017 71 31 8.0 12.0 0.00 0.00 0.00 81 1010.9
20260507071513 71 28 9.0 14.0 0.00 0.00 0.00 81 1010.9
20260507071014 71 44 9.0 13.0 0.00 0.00 0.00 80 1010.9
20260507070514 71 26 10.0 13.0 0.00 0.00 0.00 80 1010.8
20260507070013 71 25 10.0 15.0 0.00 0.00 0.00 80 1011.0
20260507065513 71 15 9.0 14.0 0.00 0.00 0.00 79 1011.0
20260507065014 71 40 9.0 14.0 0.00 0.00 0.00 79 1011.0
20260507064013 71 29 9.0 14.0 0.00 0.00 0.00 78 1011.0
20260507063513 71 34 10.0 15.0 0.00 0.00 0.00 78 1011.0
20260507062513 71 44 9.0 14.0 0.00 0.00 0.00 77 1011.0
20260507062014 71 38 10.0 15.0 0.00 0.00 0.00 77 1011.0
20260507061513 71 25 11.0 17.0 0.00 0.00 0.00 76 1011.0
20260507060513 71 19 13.0 16.0 0.00 0.00 0.00 76 1010.9
20260507060013 72 37 10.0 14.0 0.00 0.00 0.00 76 1010.9
20260507055014 72 34 9.0 12.0 0.00 0.00 0.00 76 1010.9
20260507054513 72 28 9.0 13.0 0.00 0.00 0.00 76 1010.9
20260507054014 72 25 7.0 10.0 0.00 0.00 0.00 76 1010.9
20260507053514 72 44 8.0 13.0 0.00 0.00 0.00 75 1010.9
20260507053016 72 38 8.0 15.0 0.00 0.00 0.00 75 1010.9
20260507052513 72 32 9.0 15.0 0.00 0.00 0.00 75 1010.9
20260507052014 72 32 10.0 15.0 0.00 0.00 0.00 75 1010.8
20260507051512 72 41 10.0 14.0 0.00 0.00 0.00 75 1010.8
20260507051013 72 34 12.0 15.0 0.00 0.00 0.00 75 1010.8
20260507050513 73 34 12.0 18.0 0.00 0.00 0.00 75 1010.8
20260507050013 73 28 12.0 18.0 0.00 0.00 0.00 75 1010.8
20260507045513 73 27 10.0 17.0 0.00 0.00 0.00 75 1010.8
20260507045014 73 29 12.0 20.0 0.00 0.00 0.00 75 1010.8
20260507044512 74 21 10.0 15.0 0.00 0.00 0.00 75 1010.7
20260507043513 74 25 8.0 14.0 0.00 0.00 0.00 79 1010.6
20260507043013 74 22 9.0 14.0 0.00 0.00 0.00 79 1010.5
20260507042513 74 42 11.0 16.0 0.00 0.00 0.00 78 1010.5
20260507042013 74 22 11.0 16.0 0.00 0.00 0.00 78 1010.4
20260507041513 75 17 12.0 17.0 0.00 0.00 0.00 78 1010.3
20260507041013 75 22 12.0 15.0 0.00 0.00 0.00 78 1010.3
20260507040513 76 12 12.0 15.0 0.00 0.00 0.00 76 1010.1
20260507040014 76 22 10.0 15.0 0.00 0.00 0.00 77 1010.1
20260507035512 76 29 11.0 16.0 0.00 0.00 0.00 76 1010.0
20260507035013 77 26 10.0 15.0 0.00 0.00 0.00 76 1009.9
20260507034514 77 28 10.0 14.0 0.00 0.00 0.00 76 1009.9
20260507034013 78 22 10.0 15.0 0.00 0.00 0.00 75 1009.8
20260507033514 80 23 7.0 9.0 0.00 0.00 0.00 87 1009.7
20260507033013 80 74 7.0 8.0 0.00 0.00 0.00 87 1009.5
20260507032014 80 99 5.0 8.0 0.00 0.00 0.00 88 1009.3
20260507031517 80 122 5.0 7.0 0.00 0.00 0.00 88 1009.2
20260507031014 80 113 6.0 10.0 0.00 0.00 0.00 88 1009.1
20260507030513 80 122 5.0 8.0 0.00 0.00 0.00 88 1008.9
20260507030013 80 138 6.0 9.0 0.00 0.00 0.00 88 1008.7
20260507025513 80 125 7.0 10.0 0.00 0.00 0.00 88 1008.7
20260507025013 80 121 6.0 10.0 0.00 0.00 0.00 89 1008.7
20260507023513 80 137 3.0 5.0 0.00 0.00 0.00 88 1008.5
20260507023013 80 157 5.0 6.0 0.00 0.00 0.00 88 1008.4
20260507022513 80 162 5.0 6.0 0.00 0.00 0.00 87 1008.4
20260507022013 80 172 3.0 6.0 0.00 0.00 0.00 87 1008.4
20260507021512 80 169 5.0 7.0 0.00 0.00 0.00 87 1008.3
20260507021013 80 157 5.0 7.0 0.00 0.00 0.00 86 1008.1
20260507020513 80 149 5.0 7.0 0.00 0.00 0.00 86 1008.0
20260507020014 81 159 5.0 6.0 0.00 0.00 0.00 85 1007.8
20260507015513 81 158 3.0 6.0 0.00 0.00 0.00 85 1007.8
20260507015013 81 147 5.0 8.0 0.00 0.00 0.00 85 1007.7
20260507014513 81 133 6.0 9.0 0.00 0.00 0.00 85 1007.6
20260507014013 81 142 6.0 9.0 0.00 0.00 0.00 85 1007.5
20260507013013 81 149 6.0 8.0 0.00 0.00 0.00 84 1007.3
20260507012513 81 144 6.0 9.0 0.00 0.00 0.00 84 1007.2
20260507012015 81 145 7.0 10.0 0.00 0.00 0.00 84 1007.2
20260507011513 81 143 8.0 12.0 0.00 0.00 0.00 83 1007.0
20260507011015 82 145 9.0 14.0 0.00 0.00 0.00 83 1007.0
20260507010513 82 145 9.0 13.0 0.00 0.00 0.00 82 1006.8
20260507010012 82 140 10.0 16.0 0.00 0.00 0.00 82 1006.7
20260507005512 83 140 11.0 16.0 0.00 0.00 0.00 81 1006.6
20260507005014 83 137 12.0 16.0 0.00 0.00 0.00 80 1006.6
20260507004513 83 134 10.0 13.0 0.00 0.00 0.00 78 1006.6
20260507004014 83 124 10.0 15.0 0.00 0.00 0.00 78 1006.6
20260507003513 84 123 8.0 13.0 0.00 0.00 0.00 77 1006.6
20260507003013 84 122 10.0 13.0 0.00 0.00 0.00 76 1006.5
20260507002512 84 122 6.0 12.0 0.00 0.00 0.00 76 1006.5
20260507002013 85 123 7.0 13.0 0.00 0.00 0.00 76 1006.4
20260507001515 85 117 8.0 13.0 0.00 0.00 0.00 75 1006.3
20260507000513 85 125 9.0 13.0 0.00 0.00 0.00 74 1006.1
20260506235014 86 114 8.0 13.0 0.00 0.00 0.00 73 1005.9
20260506234013 86 113 9.0 12.0 0.00 0.00 0.00 71 1005.9
20260506233513 86 134 9.0 12.0 0.00 0.00 0.00 72 1006.0
20260506233013 86 130 8.0 13.0 0.00 0.00 0.00 72 1005.9
20260506232512 86 126 9.0 13.0 0.00 0.00 0.00 71 1005.9
20260506232014 87 125 8.0 12.0 0.00 0.00 0.00 72 1005.8
20260506231513 87 126 9.0 14.0 0.00 0.00 0.00 70 1005.8
20260506230513 87 132 9.0 13.0 0.00 0.00 0.00 72 1005.8
20260506225512 87 136 8.0 12.0 0.00 0.00 0.00 71 1005.8
20260506225013 87 146 8.0 10.0 0.00 0.00 0.00 71 1005.8
20260506224512 87 137 7.0 12.0 0.00 0.00 0.00 71 1005.8
20260506224013 87 117 7.0 12.0 0.00 0.00 0.00 71 1005.9
20260506223513 87 137 9.0 13.0 0.00 0.00 0.00 71 1005.8
20260506223013 88 141 9.0 14.0 0.00 0.00 0.00 70 1005.7
20260506222013 88 147 9.0 12.0 0.00 0.00 0.00 67 1005.6
20260506221512 88 133 7.0 12.0 0.00 0.00 0.00 67 1005.6
20260506220513 88 137 9.0 12.0 0.00 0.00 0.00 69 1005.6
20260506220012 87 150 9.0 12.0 0.00 0.00 0.00 69 1005.6
20260506215513 88 153 7.0 12.0 0.00 0.00 0.00 68 1005.6
20260506215014 88 132 7.0 10.0 0.00 0.00 0.00 69 1005.7
20260506214513 88 131 7.0 12.0 0.00 0.00 0.00 67 1005.7
20260506214012 88 139 9.0 13.0 0.00 0.00 0.00 68 1005.7
20260506213512 88 142 5.0 9.0 0.00 0.00 0.00 69 1005.8
20260506213013 88 142 7.0 10.0 0.00 0.00 0.00 68 1005.8
20260506212513 88 114 3.0 8.0 0.00 0.00 0.00 68 1005.9
20260506212012 87 141 4.0 9.0 0.00 0.00 0.00 67 1005.9
20260506211512 87 126 3.0 8.0 0.00 0.00 0.00 69 1005.9
20260506211013 87 106 5.0 7.0 0.00 0.00 0.00 69 1006.0
20260506210513 86 138 4.0 7.0 0.00 0.00 0.00 71 1006.1
20260506210013 86 162 5.0 7.0 0.00 0.00 0.00 71 1006.1
20260506205512 86 151 5.0 7.0 0.00 0.00 0.00 72 1006.2
20260506205013 86 150 6.0 8.0 0.00 0.00 0.00 72 1006.1
20260506204513 86 137 4.0 7.0 0.00 0.00 0.00 71 1006.2
20260506204013 86 144 5.0 7.0 0.00 0.00 0.00 72 1006.3
20260506203512 86 150 3.0 7.0 0.00 0.00 0.00 73 1006.4
20260506203012 86 132 3.0 6.0 0.00 0.00 0.00 73 1006.4
20260506202512 86 151 3.0 8.0 0.00 0.00 0.00 73 1006.5
20260506202012 85 161 4.0 8.0 0.00 0.00 0.00 73 1006.5
20260506201512 85 114 6.0 9.0 0.00 0.00 0.00 73 1006.6
20260506201013 85 141 5.0 8.0 0.00 0.00 0.00 73 1006.6
20260506200513 85 179 5.0 8.0 0.00 0.00 0.00 72 1006.7
20260506200012 85 159 5.0 7.0 0.00 0.00 0.00 72 1006.9
20260506195513 86 164 5.0 7.0 0.00 0.00 0.00 72 1006.9
20260506195013 86 126 7.0 9.0 0.00 0.00 0.00 71 1007.0
20260506194512 86 192 3.0 9.0 0.00 0.00 0.00 72 1007.0
20260506194012 86 154 5.0 9.0 0.00 0.00 0.00 72 1007.1
20260506193513 86 193 3.0 6.0 0.00 0.00 0.00 72 1007.3
20260506193012 86 172 5.0 8.0 0.00 0.00 0.00 72 1007.3
20260506192513 86 185 3.0 5.0 0.00 0.00 0.00 72 1007.5
20260506192013 86 207 3.0 8.0 0.00 0.00 0.00 72 1007.5
20260506191515 86 155 4.0 7.0 0.00 0.00 0.00 73 1007.5
20260506190513 86 75 1.0 5.0 0.00 0.00 0.00 73 1007.6
20260506190013 85 353 2.0 5.0 0.00 0.00 0.00 74 1007.6
20260506185513 85 348 1.0 3.0 0.00 0.00 0.00 76 1007.7
20260506185013 84 130 2.0 5.0 0.00 0.00 0.00 76 1007.8
20260506184512 84 97 1.0 3.0 0.00 0.00 0.00 76 1007.8
20260506184013 84 129 2.0 5.0 0.00 0.00 0.00 76 1007.9
20260506182514 83 75 0.0 2.0 0.00 0.00 0.00 80 1008.0
20260506182012 83 235 1.0 2.0 0.00 0.00 0.00 79 1008.1
20260506181013 83 11 1.0 3.0 0.00 0.00 0.00 80 1008.3
20260506180512 83 33 2.0 3.0 0.00 0.00 0.00 81 1008.3
20260506180012 82 54 0.0 2.0 0.00 0.00 0.00 81 1008.4
20260506175512 82 64 0.0 3.0 0.00 0.00 0.00 81 1008.4
20260506175012 82 50 2.0 3.0 0.00 0.00 0.00 81 1008.3
20260506174512 82 77 0.0 3.0 0.00 0.00 0.00 81 1008.3
20260506174013 82 147 2.0 2.0 0.00 0.00 0.00 81 1008.3
20260506173512 82 247 0.0 0.0 0.00 0.00 0.00 81 1008.4
20260506173013 82 247 0.0 2.0 0.00 0.00 0.00 82 1008.4
20260506172513 82 240 1.0 2.0 0.00 0.00 0.00 81 1008.3
20260506172013 82 221 2.0 3.0 0.00 0.00 0.00 80 1008.3
20260506171515 82 206 1.0 3.0 0.00 0.00 0.00 80 1008.3
20260506171012 82 210 1.0 6.0 0.00 0.00 0.00 80 1008.2
20260506170513 82 225 3.0 6.0 0.00 0.00 0.00 80 1008.1
20260506170012 82 204 4.0 7.0 0.00 0.00 0.00 80 1008.0
20260506165513 82 189 5.0 7.0 0.00 0.00 0.00 80 1008.1
20260506165013 82 218 5.0 8.0 0.00 0.00 0.00 79 1008.0
20260506164513 82 204 5.0 10.0 0.00 0.00 0.00 79 1008.0
20260506163512 82 203 5.0 10.0 0.00 0.00 0.00 80 1007.8
20260506163013 82 208 6.0 10.0 0.00 0.00 0.00 81 1007.8
20260506162512 81 181 6.0 9.0 0.00 0.00 0.00 82 1007.7
20260506162013 81 196 7.0 10.0 0.00 0.00 0.00 82 1007.7
20260506161512 81 185 6.0 10.0 0.00 0.00 0.00 82 1007.7
20260506161012 81 194 7.0 10.0 0.00 0.00 0.00 80 1007.7
20260506160512 82 182 5.0 9.0 0.00 0.00 0.00 81 1007.6
20260506160012 82 195 5.0 8.0 0.00 0.00 0.00 79 1007.5
20260506155512 82 175 6.0 12.0 0.00 0.00 0.00 81 1007.4
20260506155012 82 164 5.0 9.0 0.00 0.00 0.00 79 1007.4
20260506154513 82 178 6.0 9.0 0.00 0.00 0.00 80 1007.4
20260506153512 82 179 7.0 13.0 0.00 0.00 0.00 78 1007.3
20260506153013 82 194 7.0 14.0 0.00 0.00 0.00 79 1007.3
20260506152512 82 200 10.0 16.0 0.00 0.00 0.00 79 1007.3
20260506151512 82 155 9.0 14.0 0.00 0.00 0.00 80 1007.2
20260506151012 82 168 7.0 12.0 0.00 0.00 0.00 80 1007.2
20260506150512 82 191 6.0 10.0 0.00 0.00 0.00 80 1007.2
20260506150012 81 168 6.0 13.0 0.00 0.00 0.00 83 1007.3
20260506145513 81 193 5.0 12.0 0.00 0.00 0.00 83 1007.2
20260506145013 81 165 5.0 12.0 0.00 0.00 0.00 83 1007.2
20260506144515 81 177 9.0 14.0 0.00 0.00 0.00 82 1007.2
20260506143013 81 164 6.0 9.0 0.00 0.00 0.00 85 1007.2
20260506142512 80 159 8.0 13.0 0.00 0.00 0.00 85 1007.2
20260506141511 80 165 7.0 12.0 0.00 0.00 0.00 85 1007.2
20260506141012 80 152 9.0 12.0 0.00 0.00 0.00 86 1007.2
20260506140512 79 172 7.0 13.0 0.00 0.00 0.00 87 1007.1
20260506140012 79 150 9.0 12.0 0.00 0.00 0.00 87 1007.2
20260506135512 79 156 8.0 12.0 0.00 0.00 0.00 87 1007.3
20260506135012 79 155 8.0 10.0 0.00 0.00 0.00 88 1007.2
20260506134512 79 149 8.0 12.0 0.00 0.00 0.00 88 1007.2
20260506134012 79 152 9.0 12.0 0.00 0.00 0.00 89 1007.1
20260506133513 78 148 9.0 10.0 0.00 0.00 0.00 88 1007.2
20260506133013 78 135 7.0 10.0 0.00 0.00 0.00 89 1007.2
20260506132512 78 139 7.0 10.0 0.00 0.00 0.00 89 1007.2
20260506132012 78 148 7.0 10.0 0.00 0.00 0.00 88 1007.2
20260506131512 78 139 7.0 12.0 0.00 0.00 0.00 89 1007.2
20260506131012 78 148 8.0 10.0 0.00 0.00 0.00 89 1007.2
20260506130512 78 139 7.0 10.0 0.00 0.00 0.00 89 1007.2
20260506130012 78 141 6.0 9.0 0.00 0.00 0.00 90 1007.1
20260506125513 78 139 7.0 9.0 0.00 0.00 0.00 89 1006.9
20260506125012 78 139 7.0 9.0 0.00 0.00 0.00 90 1006.9
20260506124512 78 147 6.0 9.0 0.00 0.00 0.00 90 1006.9
20260506124012 78 143 7.0 9.0 0.00 0.00 0.00 90 1006.9